Regional Weather Roundup
Issued by NWS

Home | Current Version | Previous Version | Text Only | Print | Product List | Glossary On
Versions: 1 2 3 4 5 6 7 8 9 10 11 12 13 14 15 16 17 18 19 20 21 22 23 24 25 26 27 28 29 30 31 32 33 34 35 36 37 38 39 40 41 42 43 44 45 46 47 48 49 50
000
ASUS44 KLIX 290612
RWRLA
LOUISIANA WEATHER ROUNDUP
NATIONAL WEATHER SERVICE NEW ORLEANS LA
100 AM CDT FRI MAY 29 2015

NOTE: "FAIR" INDICATES FEW OR NO CLOUDS BELOW 12,000 FEET WITH NO
      SIGNIFICANT WEATHER AND/OR OBSTRUCTIONS TO VISIBILITY.
      SKY/WX - SKY CONDITION AND SIGNIFICANT WEATHER.
      TMP - AIR TEMPERATURE.    DP   - DEWPOINT TEMPERATURE.
      RH  - RELATIVE HUMIDITY.  PRES - PRESSURE.
      HX  - HEAT INDEX.         WCI  - WIND CHILL INDEX.

*  THESE STATIONS ARE NOT NWS OR FAA STATIONS AND ARE NOT UNDER
   NWS QUALITY CONTROL.

LAZ040-048-061>063-065-066-069-290700-
SOUTHEAST LOUISIANA

CITY           SKY/WX    TMP DP  RH WIND       PRES   REMARKS
N.O. AUDUBON     N/A     78  76  92 MISG        N/A
6HR MIN TEMP:  78; 6HR MAX TEMP:  85;

N.O. INTL ARPT PTCLDY    77  70  79 SE7       30.04F
6HR MIN TEMP:  77; 6HR MAX TEMP:  86; 6HR PCP: TRACE;

N.O. LAKEFRONT CLEAR     79  70  74 S7        30.04F
6HR MIN TEMP:  79; 6HR MAX TEMP:  86;

SLIDELL        CLEAR     75  74  96 CALM      30.04F
6HR MIN TEMP:  75; 6HR MAX TEMP:  85;

BATON ROUGE    CLEAR     77  72  84 SE7       30.03F
6HR MIN TEMP:  76; 6HR MAX TEMP:  88;

BOOTHVILLE     CLEAR     75  72  90 SE3       30.05F
6HR MIN TEMP:  75; 6HR MAX TEMP:  79;

BELLE CHASSE   CLEAR     76  70  82 S6        30.04F
6HR MIN TEMP:  76; 6HR MAX TEMP:  83;

BOGALUSA*        N/A     74  70  87 CALM      30.07S
6HR MIN TEMP:  74; 6HR MAX TEMP:  85;

GALLIANO*      CLEAR     78  73  83 S3        30.04F
6HR MIN TEMP:  76; 6HR MAX TEMP:  82;

NEW ROADS*     FAIR      76  72  88 S5        30.04S
6HR MIN TEMP:  75; 6HR MAX TEMP:  85;

GONZALES*      FAIR      76  76 100 CALM      30.03F
6HR MIN TEMP:  76; 6HR MAX TEMP:  83;

HAMMOND*       PTCLDY    75  72  88 CALM      30.06S
HOUMA*         CLEAR     75  72  89 SE5       30.04S
6HR MIN TEMP:  75; 6HR MAX TEMP:  80;

PORT FOURCHON* PTCLDY    79  73  83 SE10G17   30.05F

$$

LAZ041-044-053-054-290700-
SOUTHWEST LOUISIANA

CITY           SKY/WX    TMP DP  RH WIND       PRES   REMARKS
LAKE CHARLES   CLEAR     75  73  93 SE6       30.00F
6HR MIN TEMP:  75; 6HR MAX TEMP:  83;

LAFAYETTE      PTCLDY    77  74  90 CALM      30.03S
6HR MIN TEMP:  77; 6HR MAX TEMP:  85;

PATTERSON      CLEAR     75  72  88 SE6       30.05F
6HR MIN TEMP:  75; 6HR MAX TEMP:  82;

SALT POINT       N/A     77  74  90 SE3       30.02F
6HR MIN TEMP:  77; 6HR MAX TEMP:  84;

NEW IBERIA     CLEAR     76  74  93 S3        30.04S
6HR MIN TEMP:  75; 6HR MAX TEMP:  85;

CHENAULT AIRPK CLEAR     74  73  97 SE6       30.02S
6HR MIN TEMP:  74; 6HR MAX TEMP:  83;


$$

LAZ027-028-290700-
CENTRAL LOUISIANA

CITY           SKY/WX    TMP DP  RH WIND       PRES   REMARKS
FORT POLK      CLEAR     73  71  92 SE7       30.00F
6HR MIN TEMP:  72; 6HR MAX TEMP:  87; 6HR PCP: TRACE;

ALEXANDRIA INT CLEAR     73  69  87 SE5       30.00F
6HR MIN TEMP:  73; 6HR MAX TEMP:  84; 6HR PCP: TRACE;

ALEXANDRIA     PTCLDY    69  68  96 SE3       30.02F
6HR MIN TEMP:  69; 6HR MAX TEMP:  80;


$$

LAZ001-002-290700-
NORTHWEST LOUISIANA

CITY           SKY/WX    TMP DP  RH WIND       PRES   REMARKS
SHREVEPORT     PTCLDY    71  67  87 SE7       29.99S
6HR MIN TEMP:  71; 6HR MAX TEMP:  79; 6HR PCP: TRACE;

BARKSDALE AFB  CLEAR     69  68  98 SE7       29.99S
6HR MIN TEMP:  69; 6HR MAX TEMP:  78;

DTN SHREVEPORT CLEAR     71  66  84 SE7       29.99F
6HR MIN TEMP:  71; 6HR MAX TEMP:  77;


$$

LAZ014-016-290700-
NORTHEAST LOUISIANA

CITY           SKY/WX    TMP DP  RH WIND       PRES   REMARKS
MONROE         CLEAR     75  71  87 SE3       30.03F
6HR MIN TEMP:  73; 6HR MAX TEMP:  82;

TALLULAH       CLOUDY    72  70  93 CALM      30.05R
6HR MIN TEMP:  72; 6HR MAX TEMP:  84;


$$



USA.gov is the U.S. government's official web portal to all federal, state and local government web resources and services.